| time (UTC) | temp F | wind direction | speed MPH | gust MPH | rain 1hr in | rain 24hr in | rain mn in | humidity % | barometer mb |
| 20260901011548 | 70 | 11 | 0.0 | 3.0 | 0.00 | 0.00 | 0.00 | 61 | 1009.4 |
| 20260901010049 | 71 | 336 | 0.0 | 8.0 | 0.00 | 0.00 | 0.00 | 60 | 1009.4 |
| 20260901004547 | 72 | 347 | 0.0 | 4.0 | 0.00 | 0.00 | 0.00 | 58 | 1009.4 |
| 20260901003047 | 73 | 344 | 0.0 | 4.0 | 0.00 | 0.00 | 0.00 | 57 | 1009.3 |
| 20260901001546 | 73 | 360 | 0.0 | 6.0 | 0.00 | 0.00 | 0.00 | 56 | 1009.3 |
| 20260901000045 | 74 | 328 | 0.0 | 3.0 | 0.00 | 0.00 | 0.00 | 55 | 1009.3 |
| 20260831234551 | 74 | 331 | 0.0 | 3.0 | 0.00 | 0.00 | 0.00 | 55 | 1009.4 |
| 20260831233047 | 75 | 265 | 0.0 | 5.0 | 0.00 | 0.00 | 0.00 | 54 | 1009.6 |
| 20260831231542 | 75 | 319 | 1.0 | 4.0 | 0.00 | 0.00 | 0.00 | 54 | 1009.7 |
| 20260831230042 | 75 | 22 | 0.0 | 5.0 | 0.00 | 0.00 | 0.00 | 54 | 1009.8 |
| 20260831224538 | 75 | 19 | 0.0 | 2.0 | 0.00 | 0.00 | 0.00 | 54 | 1010.0 |
| 20260831223049 | 74 | 49 | 0.0 | 5.0 | 0.00 | 0.00 | 0.00 | 54 | 1010.1 |
| 20260831221537 | 75 | 355 | 1.0 | 3.0 | 0.00 | 0.00 | 0.00 | 53 | 1010.5 |
| 20260831220035 | 74 | 49 | 0.0 | 2.0 | 0.00 | 0.00 | 0.00 | 54 | 1010.7 |
| 20260831214531 | 73 | 360 | 0.0 | 4.0 | 0.00 | 0.00 | 0.00 | 56 | 1010.8 |
| 20260831213026 | 72 | 11 | 1.0 | 7.0 | 0.00 | 0.00 | 0.00 | 58 | 1010.9 |
| 20260831211529 | 73 | 307 | 2.0 | 5.0 | 0.00 | 0.00 | 0.00 | 58 | 1011.2 |
| 20260831210033 | 72 | 20 | 0.0 | 4.0 | 0.00 | 0.00 | 0.00 | 58 | 1011.4 |
| 20260831204520 | 71 | 293 | 0.0 | 5.0 | 0.00 | 0.00 | 0.00 | 60 | 1011.4 |
| 20260831203016 | 70 | 355 | 0.0 | 3.0 | 0.00 | 0.00 | 0.00 | 61 | 1011.5 |
| 20260831201514 | 69 | 10 | 0.0 | 3.0 | 0.00 | 0.00 | 0.00 | 64 | 1011.8 |
| 20260831200010 | 68 | 9 | 0.0 | 4.0 | 0.00 | 0.00 | 0.00 | 66 | 1011.8 |
| 20260831194506 | 67 | 322 | 0.0 | 3.0 | 0.00 | 0.00 | 0.00 | 68 | 1011.8 |
| 20260831193009 | 65 | 336 | 0.0 | 2.0 | 0.00 | 0.00 | 0.00 | 72 | 1011.9 |
| 20260831191558 | 64 | 333 | 0.0 | 3.0 | 0.00 | 0.00 | 0.00 | 75 | 1012.2 |
| 20260831190054 | 62 | 332 | 0.0 | 1.0 | 0.00 | 0.00 | 0.00 | 79 | 1012.4 |
| 20260831184550 | 60 | 332 | 0.0 | 3.0 | 0.00 | 0.00 | 0.00 | 82 | 1012.7 |
| 20260831183054 | 59 | 332 | 0.0 | 1.0 | 0.00 | 0.00 | 0.00 | 84 | 1012.8 |
| 20260831181552 | 58 | 332 | 0.0 | 1.0 | 0.00 | 0.00 | 0.00 | 85 | 1012.7 |
| 20260831180041 | 57 | 332 | 0.0 | 1.0 | 0.00 | 0.00 | 0.00 | 85 | 1012.7 |
| 20260831174539 | 57 | 332 | 0.0 | 2.0 | 0.00 | 0.00 | 0.00 | 86 | 1012.6 |
| 20260831173037 | 57 | 332 | 0.0 | 1.0 | 0.00 | 0.00 | 0.00 | 86 | 1012.6 |
| 20260831171536 | 57 | 332 | 0.0 | 0.0 | 0.00 | 0.00 | 0.00 | 86 | 1012.5 |
| 20260831170036 | 56 | 332 | 0.0 | 1.0 | 0.00 | 0.00 | 0.00 | 86 | 1012.3 |
| 20260831164540 | 56 | 332 | 0.0 | 0.0 | 0.00 | 0.00 | 0.00 | 86 | 1012.3 |
| 20260831163030 | 56 | 332 | 0.0 | 0.0 | 0.00 | 0.00 | 0.00 | 86 | 1012.2 |
| 20260831161547 | 55 | 332 | 0.0 | 1.0 | 0.00 | 0.00 | 0.00 | 86 | 1012.2 |
| 20260831160031 | 55 | 332 | 0.0 | 0.0 | 0.00 | 0.00 | 0.00 | 86 | 1011.9 |
| 20260831154526 | 55 | 332 | 0.0 | 0.0 | 0.00 | 0.00 | 0.00 | 86 | 1012.0 |
| 20260831153026 | 55 | 332 | 0.0 | 0.0 | 0.00 | 0.00 | 0.00 | 86 | 1012.0 |
| 20260831151527 | 55 | 332 | 0.0 | 0.0 | 0.00 | 0.00 | 0.00 | 86 | 1012.0 |
| 20260831150024 | 55 | 332 | 0.0 | 0.0 | 0.00 | 0.00 | 0.00 | 86 | 1011.9 |
| 20260831144522 | 54 | 332 | 0.0 | 0.0 | 0.00 | 0.00 | 0.00 | 86 | 1011.5 |
| 20260831143020 | 54 | 332 | 0.0 | 0.0 | 0.00 | 0.00 | 0.00 | 86 | 1011.3 |
| 20260831141518 | 54 | 332 | 0.0 | 0.0 | 0.00 | 0.00 | 0.00 | 86 | 1011.1 |
| 20260831140017 | 54 | 332 | 0.0 | 0.0 | 0.00 | 0.00 | 0.00 | 86 | 1011.1 |
| 20260831134517 | 54 | 332 | 0.0 | 0.0 | 0.00 | 0.00 | 0.00 | 86 | 1011.0 |
| 20260831133015 | 54 | 332 | 0.0 | 0.0 | 0.00 | 0.00 | 0.00 | 86 | 1010.9 |
| 20260831131514 | 54 | 332 | 0.0 | 0.0 | 0.00 | 0.00 | 0.00 | 86 | 1010.8 |
| 20260831130015 | 54 | 332 | 0.0 | 0.0 | 0.00 | 0.00 | 0.00 | 86 | 1010.8 |
| 20260831124513 | 54 | 332 | 0.0 | 0.0 | 0.00 | 0.00 | 0.00 | 86 | 1010.7 |
| 20260831123020 | 54 | 332 | 0.0 | 0.0 | 0.00 | 0.00 | 0.00 | 86 | 1010.8 |
| 20260831121513 | 54 | 332 | 0.0 | 0.0 | 0.00 | 0.00 | 0.00 | 86 | 1010.9 |
| 20260831120012 | 54 | 332 | 0.0 | 0.0 | 0.00 | 0.00 | 0.00 | 86 | 1010.8 |
| 20260831114509 | 53 | 332 | 0.0 | 0.0 | 0.00 | 0.00 | 0.00 | 86 | 1010.9 |
| 20260831113010 | 53 | 332 | 0.0 | 0.0 | 0.00 | 0.00 | 0.00 | 86 | 1010.8 |
| 20260831111508 | 52 | 332 | 0.0 | 0.0 | 0.00 | 0.00 | 0.00 | 86 | 1010.7 |
| 20260831110012 | 51 | 332 | 0.0 | 0.0 | 0.00 | 0.00 | 0.00 | 86 | 1010.7 |
| 20260831104518 | 51 | 332 | 0.0 | 0.0 | 0.00 | 0.00 | 0.00 | 85 | 1010.6 |
| 20260831103013 | 51 | 332 | 0.0 | 0.0 | 0.00 | 0.00 | 0.00 | 85 | 1010.6 |
| 20260831101504 | 51 | 332 | 0.0 | 0.0 | 0.00 | 0.00 | 0.00 | 85 | 1010.6 |
| 20260831100003 | 51 | 332 | 0.0 | 0.0 | 0.00 | 0.00 | 0.00 | 84 | 1010.4 |
| 20260831094501 | 51 | 332 | 0.0 | 0.0 | 0.00 | 0.00 | 0.00 | 85 | 1010.3 |
| 20260831093112 | 52 | 332 | 0.0 | 0.0 | 0.00 | 0.00 | 0.00 | 85 | 1010.3 |
| 20260831091558 | 52 | 332 | 0.0 | 0.0 | 0.00 | 0.00 | 0.00 | 85 | 1010.4 |
| 20260831090114 | 52 | 332 | 0.0 | 0.0 | 0.00 | 0.00 | 0.00 | 84 | 1010.5 |
| 20260831084554 | 53 | 332 | 0.0 | 0.0 | 0.00 | 0.00 | 0.00 | 84 | 1010.6 |
| 20260831083106 | 53 | 332 | 0.0 | 0.0 | 0.00 | 0.00 | 0.00 | 84 | 1010.6 |
| 20260831081559 | 53 | 332 | 0.0 | 0.0 | 0.00 | 0.00 | 0.00 | 84 | 1010.5 |
| 20260831080123 | 54 | 332 | 0.0 | 0.0 | 0.00 | 0.00 | 0.00 | 84 | 1010.7 |
| 20260831074548 | 54 | 332 | 0.0 | 0.0 | 0.00 | 0.00 | 0.00 | 83 | 1010.8 |
| 20260831073046 | 55 | 332 | 0.0 | 0.0 | 0.00 | 0.00 | 0.00 | 83 | 1010.7 |
| 20260831071547 | 55 | 332 | 0.0 | 0.0 | 0.00 | 0.00 | 0.00 | 81 | 1010.6 |
| 20260831070043 | 55 | 332 | 0.0 | 0.0 | 0.00 | 0.00 | 0.00 | 80 | 1010.5 |
| 20260831064540 | 56 | 332 | 0.0 | 0.0 | 0.00 | 0.00 | 0.00 | 79 | 1010.4 |
| 20260831063041 | 57 | 332 | 0.0 | 0.0 | 0.00 | 0.00 | 0.00 | 78 | 1010.4 |
| 20260831061542 | 58 | 332 | 0.0 | 0.0 | 0.00 | 0.00 | 0.00 | 76 | 1010.4 |
| 20260831060040 | 59 | 332 | 0.0 | 0.0 | 0.00 | 0.00 | 0.00 | 76 | 1010.5 |
| 20260831054539 | 59 | 332 | 0.0 | 0.0 | 0.00 | 0.00 | 0.00 | 75 | 1010.4 |
| 20260831053106 | 60 | 332 | 0.0 | 0.0 | 0.00 | 0.00 | 0.00 | 73 | 1010.3 |
| 20260831051539 | 61 | 332 | 0.0 | 0.0 | 0.00 | 0.00 | 0.00 | 72 | 1010.2 |
| 20260831050038 | 62 | 332 | 0.0 | 0.0 | 0.00 | 0.00 | 0.00 | 71 | 1010.2 |
| 20260831044624 | 63 | 332 | 0.0 | 0.0 | 0.00 | 0.00 | 0.00 | 69 | 1010.1 |
| 20260831043036 | 64 | 332 | 0.0 | 0.0 | 0.00 | 0.00 | 0.00 | 66 | 1009.9 |
| 20260831041537 | 65 | 332 | 0.0 | 0.0 | 0.00 | 0.00 | 0.00 | 64 | 1009.7 |
| 20260831040036 | 66 | 332 | 0.0 | 0.0 | 0.00 | 0.00 | 0.00 | 62 | 1009.5 |
| 20260831034534 | 67 | 332 | 0.0 | 0.0 | 0.00 | 0.00 | 0.00 | 59 | 1009.4 |
| 20260831033042 | 69 | 332 | 0.0 | 0.0 | 0.00 | 0.00 | 0.00 | 56 | 1009.3 |
| 20260831031537 | 70 | 332 | 0.0 | 1.0 | 0.00 | 0.00 | 0.00 | 54 | 1009.1 |
| 20260831030033 | 71 | 332 | 0.0 | 0.0 | 0.00 | 0.00 | 0.00 | 53 | 1009.0 |
| 20260831024533 | 72 | 332 | 0.0 | 1.0 | 0.00 | 0.00 | 0.00 | 52 | 1009.1 |
| 20260831023032 | 74 | 332 | 0.0 | 1.0 | 0.00 | 0.00 | 0.00 | 49 | 1008.9 |
| 20260831021532 | 75 | 332 | 0.0 | 1.0 | 0.00 | 0.00 | 0.00 | 47 | 1008.9 |
| 20260831020031 | 77 | 332 | 0.0 | 2.0 | 0.00 | 0.00 | 0.00 | 45 | 1009.0 |
| 20260831014530 | 78 | 327 | 0.0 | 3.0 | 0.00 | 0.00 | 0.00 | 43 | 1009.0 |
| 20260831013030 | 79 | 327 | 0.0 | 4.0 | 0.00 | 0.00 | 0.00 | 42 | 1008.9 |